User: anonymous   Login
Location: Unspecified
(0.0000°N, 0.0000°E)
Time: 21:37:46
(UTC+00:00)
Language:

MTI - Orbit

View from above orbital plane
View from above orbital plane
View from above satellite
View from above satellite

Ground track
Ground track

The orbit data is extracted from the following two-line orbital elements,

1 26102U 00014A   21125.21738360  .00008472  00000-0  10487-3 0  9991
2 26102  97.4696  29.5217 0008281 114.0471 246.1647 15.60322481174607
Epoch (UTC): 05 May 2021 05:13:01
Eccentricity: 0.0008281
inclination: 97.4696°
perigee height: 381 km
apogee height: 392 km
right ascension of ascending node: 29.5217°
argument of perigee: 114.0471°
revolutions per day: 15.60322481
mean anomaly at epoch: 246.1647°
orbit number at epoch: 17460

The dashed part of the orbit path shows where the satellite is in the earth's shadow,  

DLR